Regional Weather Roundup
Issued by NWS

Home | Current Version | Previous Version | Text Only | Print | Product List | Glossary Off
Versions: 1 2 3 4 5 6 7 8 9 10 11 12 13 14 15 16 17 18 19 20 21 22 23 24 25 26 27 28 29 30 31 32 33 34 35 36 37 38 39 40 41 42 43 44 45 46 47 48 49 50

662
ASUS45 KSLC 301210
RWRUT

UTAH REGIONAL WEATHER ROUNDUP
NATIONAL WEATHER SERVICE SALT LAKE CITY UT
600 AM MDT TUE AUG 30 2016

UTZ001>011-023>025-301300-

NORTHERN UTAH

CITY           SKY/WX    TMP DP  RH WIND       PRES   REMARKS
BRIGHAM CITY     N/A     57  39  51 CALM      30.14F
HILL AFB       PTCLDY    66  31  27 E18       30.16S
LOGAN          PTCLDY    49  38  65 CALM      30.18S
OGDEN          PTCLDY    66  32  28 S10       30.14R
PROVO AIRPORT  NOT AVBL
SALT LAKE CITY PTCLDY    67  39  35 SE8       30.12F
VERNAL         CLEAR     54  39  57 W6        30.27S
WENDOVER       MOCLDY    63  34  34 NE9       30.13R
HEBER CITY     CLEAR     45  36  70 E3        30.28S
WEST JORDAN    CLEAR     62  32  32 CALM      30.16S

$$

UTZ012>022-026-027-301300-

SOUTHERN/CENTRAL UTAH

CITY           SKY/WX    TMP DP  RH WIND       PRES   REMARKS
BLANDING       CLEAR     56  42  58 CALM      30.38R
BRYCE CANYON   CLEAR     45  39  79 W9        30.40S
CEDAR CITY     CLEAR     61  36  39 CALM      30.23S
DELTA          CLEAR     55  28  35 E8        30.16S
MILFORD        NOT AVBL
MOAB/CYNLANDS  CLEAR     65  43  44 SE6       30.20S
PRICE          CLEAR     57  33  40 NE7       30.30S
ST GEORGE      SUNNY     73  45  35 CALM      30.07R

$$

REGIONAL REPORTS     COLORADO/ARIZONA

CITY           SKY/WX    TMP DP  RH WIND       PRES   REMARKS
CRAIG, CO      CLEAR     48  37  65 CALM      30.37R
GRAND JUNCTION CLEAR     57  43  59 SE12      30.27R
RIFLE          CLEAR     49  43  80 CALM      30.34R
MONTROSE       CLEAR     51  43  74 SE7       30.35S
CORTEZ         CLEAR     51  46  83 CALM      30.32R
PAGE, AZ       CLEAR     68  38  33 SE7       30.16R
GRAND CANYON   CLEAR     46  42  86 CALM      30.32F
KINGMAN        CLEAR     72  46  39 SE10      30.05S
FLAGSTAFF      CLEAR     44  42  93 CALM      30.34S

$$

REGIONAL REPORTS    NEVADA/IDAHO/WYOMING

CITY           SKY/WX    TMP DP  RH WIND       PRES   REMARKS
LAS VEGAS, NV  PTCLDY    82  33  17 W8        29.91S
ELY            PTCLDY    51  21  30 S8        30.27S
ELKO           MOCLDY    51  27  39 CALM      30.17R
POCATELLO, ID  PTCLDY    47  36  65 CALM      30.17R
BURLEY         PTCLDY    51  48  89 CALM      30.10S
EVANSTON, WY   PTCLDY    52  24  33 SE7       30.37S
ROCK SPRINGS   CLEAR     55  33  43 E8        30.38R

$$




USA.gov is the U.S. government's official web portal to all federal, state and local government web resources and services.